GALAXY 32 (G-32)

Last updated on Mon Sep 07 2026 00:03:02 GMT+0000 (Coordinated Universal Time)

1 54244U 22153B 26249.57379492 .00000000 00000+0 00000+0 0 9999 2 54244 0.0159 140.1659 0000129 166.1514 154.9208 1.00268893 13963
UTC large
Height (km)
Speed (km/s)
/
Latitude / Longitude
Inclination (degrees)
Orbital Period (minutes)
Azimuth
Elevation
Range (km)
Doppler Factor

Next 0 passes for location: London (51.5072 / 0.1276)

No passes found over London.
GALAXY 32 (G-32)